TimeEDT,TemperatureF,Dew PointF,Humidity,Sea Level PressureIn,VisibilityMPH,Wind Direction,Wind SpeedMPH,Gust SpeedMPH,PrecipitationIn,Events,Conditions,WindDirDegrees,DateUTC
12:15 AM,33.6,23.7,67,29.91,10.0,NW,12.7,19.6,N/A,,Overcast,310,2013-03-21 04:15:00
12:35 AM,33.8,21.6,61,29.91,10.0,NW,8.1,20.7,N/A,,Overcast,320,2013-03-21 04:35:00
12:55 AM,33.1,20.5,60,29.90,10.0,WNW,6.9,19.6,N/A,,Scattered Clouds,300,2013-03-21 04:55:00
1:15 AM,32.9,19.9,59,29.89,10.0,WNW,8.1,17.3,N/A,,Scattered Clouds,300,2013-03-21 05:15:00
1:35 AM,32.9,18.5,55,29.88,10.0,NW,9.2,18.4,N/A,,Clear,320,2013-03-21 05:35:00
2:15 AM,32.0,19.0,59,29.88,10.0,West,3.5,-,N/A,,Overcast,280,2013-03-21 06:15:00
2:35 AM,31.8,16.5,53,29.87,10.0,NW,4.6,-,N/A,,Overcast,310,2013-03-21 06:35:00
2:55 AM,30.7,11.7,45,29.87,10.0,NNW,3.5,25.3,N/A,,Scattered Clouds,340,2013-03-21 06:55:00
3:15 AM,29.8,9.3,42,29.87,10.0,WNW,8.1,-,N/A,,Clear,290,2013-03-21 07:15:00
3:35 AM,29.5,8.6,42,29.86,10.0,WNW,11.5,16.1,N/A,,Clear,290,2013-03-21 07:35:00
3:55 AM,29.3,2.8,32,29.85,10.0,NW,9.2,28.8,N/A,,Clear,310,2013-03-21 07:55:00
4:15 AM,28.4,3.9,35,29.85,10.0,WNW,10.4,17.3,N/A,,Clear,290,2013-03-21 08:15:00
4:35 AM,27.7,3.7,36,29.84,10.0,WNW,9.2,17.3,N/A,,Clear,300,2013-03-21 08:35:00
4:55 AM,27.3,2.8,35,29.85,10.0,WNW,6.9,18.4,N/A,,Clear,300,2013-03-21 08:55:00
5:15 AM,26.8,2.8,36,29.84,10.0,WNW,9.2,20.7,N/A,,Clear,300,2013-03-21 09:15:00
5:35 AM,26.4,2.3,36,29.84,10.0,NNW,8.1,-,N/A,,Clear,340,2013-03-21 09:35:00
5:55 AM,25.5,3.7,39,29.84,10.0,NNW,5.8,-,N/A,,Clear,340,2013-03-21 09:55:00
6:15 AM,25.3,3.2,39,29.84,10.0,WNW,6.9,-,N/A,,Clear,300,2013-03-21 10:15:00
6:35 AM,24.8,3.9,41,29.84,10.0,NW,9.2,-,N/A,,Clear,310,2013-03-21 10:35:00
6:55 AM,24.3,4.6,43,29.84,10.0,NW,8.1,-,N/A,,Clear,310,2013-03-21 10:55:00
7:15 AM,23.7,5.0,45,29.84,10.0,WNW,8.1,-,N/A,,Clear,300,2013-03-21 11:15:00
7:35 AM,23.5,5.2,46,29.85,10.0,NW,5.8,-,N/A,,Clear,310,2013-03-21 11:35:00
7:55 AM,23.0,5.0,46,29.85,10.0,NNW,6.9,-,N/A,,Clear,330,2013-03-21 11:55:00
8:15 AM,23.9,5.9,46,29.85,10.0,NW,5.8,-,N/A,,Clear,310,2013-03-21 12:15:00
8:35 AM,24.4,6.8,47,29.84,10.0,North,9.2,16.1,N/A,,Clear,360,2013-03-21 12:35:00
8:55 AM,24.8,7.5,48,29.85,10.0,North,8.1,16.1,N/A,,Clear,350,2013-03-21 12:55:00
9:15 AM,25.3,8.1,48,29.85,10.0,NNW,8.1,17.3,N/A,,Clear,330,2013-03-21 13:15:00
9:35 AM,25.9,8.4,48,29.86,10.0,North,9.2,-,N/A,,Clear,350,2013-03-21 13:35:00
9:55 AM,26.6,8.1,46,29.86,10.0,NW,5.8,-,N/A,,Clear,310,2013-03-21 13:55:00
10:15 AM,27.7,6.8,41,29.86,10.0,NNE,5.8,-,N/A,,Clear,20,2013-03-21 14:15:00
10:35 AM,28.9,6.1,38,29.87,10.0,NNW,3.5,-,N/A,,Clear,340,2013-03-21 14:35:00
10:55 AM,30.2,5.9,36,29.87,10.0,North,11.5,19.6,N/A,,Clear,360,2013-03-21 14:55:00
11:15 AM,30.9,4.1,32,29.87,10.0,NW,4.6,-,N/A,,Clear,320,2013-03-21 15:15:00
11:35 AM,32.0,3.4,30,29.87,10.0,North,10.4,19.6,N/A,,Clear,350,2013-03-21 15:35:00
11:55 AM,32.2,3.0,29,29.88,10.0,North,9.2,17.3,N/A,,Clear,350,2013-03-21 15:55:00
12:15 PM,32.9,4.6,30,29.88,10.0,NNW,12.7,18.4,N/A,,Clear,340,2013-03-21 16:15:00
12:35 PM,32.9,5.7,32,29.88,10.0,NNW,11.5,17.3,N/A,,Clear,330,2013-03-21 16:35:00
12:55 PM,33.3,4.8,30,29.88,10.0,North,16.1,19.6,N/A,,Clear,350,2013-03-21 16:55:00
1:15 PM,34.2,5.4,30,29.87,10.0,WNW,10.4,23.0,N/A,,Clear,290,2013-03-21 17:15:00
1:35 PM,35.1,6.3,30,29.87,10.0,NNW,9.2,19.6,N/A,,Clear,330,2013-03-21 17:35:00
1:55 PM,35.8,5.7,28,29.86,10.0,WNW,13.8,20.7,N/A,,Clear,300,2013-03-21 17:55:00
2:15 PM,36.3,6.1,28,29.86,10.0,North,12.7,21.9,N/A,,Clear,10,2013-03-21 18:15:00
2:35 PM,36.5,5.7,28,29.86,10.0,North,11.5,23.0,N/A,,Clear,360,2013-03-21 18:35:00
2:55 PM,36.7,4.6,26,29.86,10.0,North,10.4,23.0,N/A,,Clear,10,2013-03-21 18:55:00
3:15 PM,36.7,4.6,26,29.86,10.0,NW,8.1,19.6,N/A,,Clear,320,2013-03-21 19:15:00
3:35 PM,37.0,5.4,27,29.86,10.0,NW,8.1,18.4,N/A,,Clear,320,2013-03-21 19:35:00
3:55 PM,36.9,5.0,26,29.86,10.0,North,12.7,19.6,N/A,,Clear,360,2013-03-21 19:55:00
4:15 PM,37.6,5.4,26,29.86,10.0,NNE,12.7,20.7,N/A,,Clear,20,2013-03-21 20:15:00
4:35 PM,37.4,4.3,25,29.87,10.0,North,11.5,23.0,N/A,,Clear,360,2013-03-21 20:35:00
4:55 PM,37.8,4.5,25,29.86,10.0,North,6.9,-,N/A,,Clear,360,2013-03-21 20:55:00
5:15 PM,37.2,4.6,26,29.87,10.0,NNW,8.1,18.4,N/A,,Clear,340,2013-03-21 21:15:00
5:35 PM,37.8,5.4,26,29.87,10.0,North,11.5,-,N/A,,Clear,10,2013-03-21 21:35:00
5:55 PM,37.4,3.7,24,29.86,10.0,North,12.7,20.7,N/A,,Clear,360,2013-03-21 21:55:00
6:15 PM,37.4,4.5,25,29.86,10.0,NNW,9.2,-,N/A,,Clear,340,2013-03-21 22:15:00
6:35 PM,36.9,3.7,25,29.87,10.0,NW,8.1,-,N/A,,Clear,320,2013-03-21 22:35:00
6:55 PM,36.0,4.3,27,29.87,10.0,NNW,4.6,-,N/A,,Clear,330,2013-03-21 22:55:00
7:15 PM,35.2,4.1,27,29.88,10.0,WNW,8.1,-,N/A,,Clear,300,2013-03-21 23:15:00
7:35 PM,34.0,4.1,28,29.88,10.0,NW,4.6,-,N/A,,Clear,320,2013-03-21 23:35:00
7:55 PM,32.9,5.4,31,29.88,10.0,NW,9.2,-,N/A,,Clear,310,2013-03-21 23:55:00
8:15 PM,32.9,5.7,32,29.88,10.0,NW,5.8,-,N/A,,Clear,320,2013-03-22 00:15:00
8:35 PM,32.9,5.7,32,29.89,10.0,NW,8.1,-,N/A,,Clear,310,2013-03-22 00:35:00
8:55 PM,32.4,6.6,34,29.90,10.0,NNW,3.5,-,N/A,,Clear,330,2013-03-22 00:55:00
9:15 PM,32.0,7.3,36,29.91,10.0,WNW,4.6,-,N/A,,Clear,300,2013-03-22 01:15:00
9:35 PM,32.0,7.7,36,29.92,10.0,WNW,8.1,-,N/A,,Clear,290,2013-03-22 01:35:00
9:55 PM,32.0,7.0,35,29.91,10.0,NW,5.8,-,N/A,,Clear,310,2013-03-22 01:55:00
10:15 PM,31.5,8.1,37,29.91,10.0,Calm,Calm,-,N/A,,Clear,0,2013-03-22 02:15:00
10:35 PM,29.1,11.1,47,29.91,10.0,Calm,Calm,-,N/A,,Clear,0,2013-03-22 02:35:00
10:55 PM,26.8,14.5,60,29.92,10.0,Calm,Calm,-,N/A,,Clear,0,2013-03-22 02:55:00
11:15 PM,26.2,13.8,59,29.92,10.0,Calm,Calm,-,N/A,,Clear,0,2013-03-22 03:15:00
11:35 PM,26.1,14.4,61,29.92,10.0,Calm,Calm,-,N/A,,Clear,0,2013-03-22 03:35:00
11:55 PM,25.2,14.0,63,29.93,10.0,Calm,Calm,-,N/A,,Clear,0,2013-03-22 03:55:00